Weather Roundup
Issued by NWS Springfield, MO

Home | Current Version | Previous Version | Text Only | Print | Product List | Glossary On
Versions: 1 2 3 4 5 6 7 8 9 10 11 12 13 14 15 16 17 18 19 20 21 22 23 24 25 26 27 28 29 30 31 32 33 34 35 36 37 38 39 40 41 42 43 44 45 46 47 48 49 50
610
NZUS99 KSGF 091207
HRRSGF

HOURLY WEATHER
NATIONAL WEATHER SERVICE SPRINGFIELD MO
600 AM CST FRI DEC 09 2016

......SGF CWA......

CITY           SKY/WX    TMP DP  RH WIND       PRES   REMARKS
SPRINGFIELD    CLEAR     13   9  84 NW3       30.61S
6HR MIN TEMP:  12; 6HR MAX TEMP:  16;

JOPLIN         CLOUDY    12   9  87 CALM      30.66S
6HR MIN TEMP:  12; 6HR MAX TEMP:  17;

WEST PLAINS    CLEAR     13   9  84 CALM      30.61R
6HR MIN TEMP:  12; 6HR MAX TEMP:  20;

ROLLA          CLEAR     13   9  84 W7        30.60S WCI   3
6HR MIN TEMP:  13; 6HR MAX TEMP:  17;

OSAGE BEACH    CLEAR     14   8  77 NW3       30.66S
BRANSON        CLEAR     14  10  85 CALM      30.62S

......SURROUNDING SGF CWA......

CITY           SKY/WX    TMP DP  RH WIND       PRES   REMARKS
CHANUTE        CLOUDY    14  10  84 CALM      30.65F
PARSONS        CLOUDY    11   7  84 CALM      30.67F
COFFEYVILLE    CLOUDY    15  11  83 CALM      30.68F
EMPORIA        CLOUDY    12   9  87 CALM      30.62F
GROVE OK       CLOUDY    14  12  92 CALM      30.68S
ROGERS AR      CLOUDY    13  10  88 CALM      30.63S
SILOAM SPRINGS CLOUDY    14   9  79 CALM      30.63S
HARRISON AR    CLOUDY    14  11  87 W3        30.62R
NEAR YELLVILLE CLEAR     19  10  68 NW5       30.62S WCI  13

......KANSAS AND MISSOURI......

CITY           SKY/WX    TMP DP  RH WIND       PRES   REMARKS
KANSAS CTY INT CLEAR     12   6  77 N5        30.63F WCI   4
DOWNTOWN KC    CLEAR     16   9  74 CALM      30.66F
COLUMBIA       CLEAR     14   9  80 NW6       30.63S WCI   5
SEDALIA        CLEAR     15   8  73 NW5       30.66S WCI   8
ST JOSEPH      CLEAR     11   8  88 S5        30.66F WCI   3
ST LOUIS       CLEAR     18  10  71 NW5       30.62R WCI  11
SPIRIT OF STL  CLEAR     15  11  83 W5        30.63S WCI   8
KIRKSVILLE     CLEAR      9   6  88 W3        30.62R
WICHITA        CLOUDY    17  10  74 E6        30.60F WCI   9
TOPEKA         CLOUDY    12   7  80 CALM      30.65F
OLATHE         CLEAR     12   7  80 CALM      30.63F

......TENNESSEE......

CITY           SKY/WX    TMP DP  RH WIND       PRES   REMARKS
MEMPHIS        CLEAR     24  14  65 N6        30.64R WCI  17
NASHVILLE      CLOUDY    26  15  63 N12       30.57R WCI  16

......ARKANSAS.......

CITY           SKY/WX    TMP DP  RH WIND       PRES   REMARKS
FAYETTEVILLE   CLOUDY    11  10  96 CALM      30.63S
FT SMITH       CLOUDY    21  14  74 CALM      30.69R
LITTLE ROCK    CLEAR     21  16  81 N7        30.69R WCI  12

......OKLAHOMA.......

CITY           SKY/WX    TMP DP  RH WIND       PRES   REMARKS
TULSA          CLOUDY    17  12  80 CALM      30.68S
PONCA CITY     CLOUDY    11   7  84 CALM      30.64F
MCALESTER      CLOUDY    17  13  84 CALM      30.67R
OKLAHOMA CITY  CLOUDY    23  12  62 E7        30.62S WCI  15

......IOWA............

CITY           SKY/WX    TMP DP  RH WIND       PRES   REMARKS
DES MOINES     CLEAR     11   5  77 NW7       30.60F WCI   0
QUAD CITIES    CLOUDY    19  11  70 W13       30.57R WCI   6

......ILLINOIS........

CITY           SKY/WX    TMP DP  RH WIND       PRES   REMARKS
QUINCY         CLOUDY    17  12  80 NW8       30.60R WCI   7
CHICAGO        CLOUDY    22  17  81 W10       30.47R WCI  11




USA.gov is the U.S. government's official web portal to all federal, state and local government web resources and services.